Hourly Data Report for February 21, 2003

SHERBROOKE A
QUEBEC

45°26'00.000" N
71°41'00.000" W
241.40 m
7028124
71610
YSC

Download Data

Hourly Data (February 2003)
Hourly Data Report for February 21, 2003
TIME
LST
Temp Definition
°C
Dew Point Definition
°C
Rel Hum Definition
%
Precip. Amount Definition
mm

Wind Dir Definition
10's deg

Wind Spd Definition
km/h
Visibility Definition
km
Stn Press Definition
kPa
Hmdx Definition


Wind Chill Definition


Weather Definition


00:00 2.9 -7.6 46   24 19 15.0 98.38      
01:00 2.8 -7.6 46   24 19 15.0 98.36      
02:00 2.5 -7.5 48   25 19 15.0 98.34      
03:00 2.4 -7.7 47   24 19 15.0 98.29      
04:00 1.9 -7.6 49   24 13 15.0 98.32      
05:00 2.3 -7.1 50   24 17 15.0 98.36      
06:00 0.5 -4.0 72   25 19 3.7 98.44     Snow
07:00 0.1 -3.7 76   23 9 2.1 98.46     Snow
08:00 0.7 -4.5 68   19 7 19.3 98.46     Snow
09:00 2.2 -5.2 58   25 20 19.3 98.45     Snow
10:00 2.4 -5.2 57   26 13 24.1 98.48     Cloudy
11:00 2.7 -5.3 56   25 22 24.1 98.45     Cloudy
12:00 3.0 -5.3 54   25 19 24.1 98.45     Mostly Cloudy
13:00 2.8 -5.0 56   27 20 24.1 98.42     Cloudy
14:00 2.7 -4.7 58   27 17 24.1 98.41     Mostly Cloudy
15:00 2.6 -5.3 56   32 9 24.1 98.43     Mostly Cloudy
16:00 1.9 -5.5 58   29 9 24.1 98.42     Cloudy
17:00 1.4 -5.6 60   36 6 24.1 98.45     Cloudy
18:00 0.3 -5.6 65   7 6 15.0 98.51      
19:00 -0.1 -5.8 65   1 4 15.0 98.55   -1  
20:00 -0.2 -5.7 66   5 7 15.0 98.51   -3  
21:00 -0.6 -5.8 68   6 4 15.0 98.51   -2  
22:00 -1.1 -6.2 68   4 6 15.0 98.50   -3  
23:00 -1.5 -6.7 68   9 7 15.0 98.48   -4  

Notes on Data Quality.

Legend

  • E = Estimated
  • M = Missing
  • NA = Not Available*
  • [empty] = Indicates an unobserved value
Date modified: